Voltar ao catálogo

PARUS-6U1

AtivoRádio AmadorSSO
NORAD 68456·PAYLOAD·🇹🇼 Taiwan

Lançado Mar 30, 2026 de Vandenberg Space Force Base

Loading…

Próximas Passagens (próximas 24 horas)

TLE

AtualizadoSource: Space-Track

Época: Sep 14, 2026, 20:10 UTC

1 68456U 26067AS  26257.84081588  .00005237  00000-0  25830-3 0  9992
2 68456  97.4654 214.9223 0007337 106.4472 253.7569 15.18326638 25538

Acompanhe PARUS-6U1 em tempo real com AllMySat

Download on the App Store